Flag for Kazakhstan Weather past 2 weeks in Qyzylorda, Kazakhstan

Now
64 °F

Clear.


Feels Like: 64 °F
Forecast: 71 / 92 °F
Wind: 8 mph from Northeast

Location: Kzyl-Orda

Current Time: May 30, 2015 at 6:47:31 AM

Latest Report: May 30, 2015 at 6:00 AM


Visibility: 10 mi

Pressure: 29.89 "Hg

Humidity: 60%

Dew point: 50 °F

Location of QyzylordaLocation

Historic Weather in Qyzylorda — Graph

°F

Qyzylorda temperature yesterday

Maximum temperature yesterday: 93 °F (at 4:30 PM)
Minimum temperature yesterday: 68 °F (at 4:00 AM)
Average temperature yesterday: 82 °F

Past Weeks' High & Low Weather Summary

 TemperatureHumidityPressure
High93 °F (May 29, 4:30 PM)100% (May 16, 2:00 AM)30.09 "Hg (May 16, 2:00 AM)
Low43 °F (May 21, 6:00 AM)11% (May 28, 3:30 PM)29.62 "Hg (May 16, 6:00 AM)
Average69 °F51%29.94 "Hg
* Reported May 15 5:00 AM — May 30 5:30 AM, Qyzylorda, Weather by CustomWeather, © 2015

Note: Actual official high and low records may vary slightly from our data, if they occured in-between our weather recording intervals... More about our weather records

Advertising

Qyzylorda weather history for previous 24 hours

 ConditionsComfort  
Time TempWeatherWind HumidityBarometerVisibility
5:30 AM
Sat, May 30
64 °FClear.10 mph60%29.89 "Hg10 mi
5:00 AM66 °FClear.10 mph56%29.89 "Hg10 mi
4:30 AM66 °FClear.10 mph56%29.89 "Hg10 mi
4:00 AM68 °FClear.10 mph49%29.89 "Hg10 mi
3:00 AM72 °FClear.10 mph44%29.89 "Hg10 mi
2:00 AM73 °FClear.8 mph38%29.89 "Hg10 mi
1:00 AM75 °FClear.8 mph34%29.92 "Hg10 mi
12:00 AM75 °FClear.8 mph31%29.89 "Hg10 mi
11:00 PM
Fri, May 29
77 °FClear.8 mph28%29.89 "Hg10 mi
10:00 PM79 °FSunny.10 mph26%29.86 "Hg10 mi
9:00 PM86 °FSunny.10 mph18%29.86 "Hg10 mi
8:00 PM90 °FSunny.13 mph13%29.86 "Hg10 mi
7:30 PM91 °FSunny.13 mph14%29.86 "Hg10 mi
7:00 PM91 °FSunny.13 mph12%29.86 "Hg10 mi
6:30 PM91 °FSunny.15 mph12%29.86 "Hg10 mi
6:00 PM91 °FSunny.15 mph13%29.86 "Hg10 mi
5:30 PM93 °FSunny.15 mph12%29.86 "Hg10 mi
5:00 PM93 °FSunny.13 mph12%29.86 "Hg10 mi
4:30 PM93 °FSunny.13 mph12%29.86 "Hg10 mi
4:00 PM91 °FSunny.13 mph13%29.86 "Hg10 mi
3:30 PM91 °FSunny.13 mph12%29.86 "Hg10 mi
3:00 PM91 °FSunny.17 mph12%29.89 "Hg10 mi
2:30 PM91 °FSunny.15 mph11%29.89 "Hg10 mi
2:00 PM91 °FSunny.15 mph13%29.89 "Hg10 mi
1:30 PM90 °FSunny.15 mph14%29.89 "Hg10 mi
1:00 PM90 °FSunny.13 mph14%29.89 "Hg10 mi
12:30 PM90 °FSunny.13 mph15%29.89 "Hg10 mi
12:00 PM88 °FSunny.13 mph16%29.89 "Hg10 mi
11:30 AM86 °FSunny.13 mph18%29.89 "Hg10 mi
11:00 AM84 °FSunny.15 mph22%29.89 "Hg10 mi
10:30 AM84 °FSunny.15 mph23%29.89 "Hg10 mi
10:00 AM81 °FSunny.13 mph26%29.89 "Hg10 mi
9:30 AM79 °FSunny.15 mph30%29.89 "Hg10 mi
9:00 AM75 °FSunny.13 mph34%29.86 "Hg10 mi
8:30 AM75 °FSunny.15 mph34%29.89 "Hg10 mi
8:00 AM70 °FSunny.13 mph43%29.86 "Hg10 mi
7:30 AM70 °FSunny.10 mph43%29.89 "Hg10 mi
7:00 AM68 °FSunny.10 mph46%29.86 "Hg10 mi
6:00 AM68 °FClear.8 mph46%29.86 "Hg10 mi
Weather by CustomWeather, © 2015

See weather overviewHow to use our weather pages